Location: Riverside Cemetery
(38.3047°N, 99.7773°W)
Time: 01:20:43
(UTC+00:00)

Cosmos 921 Rocket - Pass Details

Date: 19 September 2020
Orbit: 572 x 632 km, 75.8° (Epoch: 23 October)

Event Time Altitude Azimuth Distance (km) Brightness Sun altitude
Exits shadow 09:55:09 33° 96° (E) 978 4.4 -29.0°
Drops below altitude 10° 09:58:46 10° 36° (NE) 1,881 6.3 -28.4°
Sets 10:01:07 0° 27° (NNE) 2,784 7.2 -28.0°
